Location: Bakov nad Jizerou
(50.4784°N, 14.9394°E)
Time: 07:11:28
(UTC+00:00)

Cosmos 1025 Rocket - Pass Details

Date: 16 June 2021
Orbit: 593 x 619 km, 82.5° (Epoch: 28 July)

Event Time Altitude Azimuth Distance (km) Brightness Sun altitude
Exits shadow 21:09:59 - 200° (SSW) 2,151 5.4 -12.2°
Reaches altitude 10° 21:10:25 10° 201° (SSW) 1,978 5.2 -12.2°
Maximum altitude 21:14:45 63° 282° (WNW) 694 3.5 -12.5°
Drops below altitude 10° 21:19:07 10° 5° (N) 1,983 6.7 -12.8°
Sets 21:21:22 0° 8° (N) 2,888 7.6 -12.9°
